User: anonymous   Login
Location: Pian di Sc�
(43.6333°N, 11.5500°E)
Time: 06:53:20
(UTC+00:00)
Language:

ADEOS II - Orbit

View from above orbital plane
View from above orbital plane
View from above satellite
View from above satellite

Ground track
Ground track

The orbit data is extracted from the following two-line orbital elements,

1 27597U 02056A   20293.60447351 +.00000028 +00000-0 +29063-4 0  9993
2 27597 098.5324 238.1365 0001431 040.9546 319.1743 14.27463936929528
Epoch (UTC): 19 October 2020 14:30:26
Eccentricity: 0.0001431
inclination: 98.5324°
perigee height: 799 km
apogee height: 801 km
right ascension of ascending node: 238.1365°
argument of perigee: 40.9546°
revolutions per day: 14.27463936
mean anomaly at epoch: 319.1743°
orbit number at epoch: 92952

The dashed part of the orbit path shows where the satellite is in the earth's shadow,  

DLR